Year,Month,Day,Hour,Minute,Value (Times are PST for temperature in C)
2018,08,23,00,00,15.40
2018,08,23,00,01,15.40
2018,08,23,00,02,15.40
2018,08,23,00,03,15.30
2018,08,23,00,04,15.30
2018,08,23,00,05,15.30
2018,08,23,00,06,15.30
2018,08,23,00,07,15.30
2018,08,23,00,08,15.20
2018,08,23,00,09,15.20
2018,08,23,00,10,15.20
2018,08,23,00,11,15.20
2018,08,23,00,12,15.20
2018,08,23,00,13,15.20
2018,08,23,00,14,15.20
2018,08,23,00,15,15.10
2018,08,23,00,16,15.10
2018,08,23,00,17,15.10
2018,08,23,00,18,15.10
2018,08,23,00,19,15.10
2018,08,23,00,20,15.00
2018,08,23,00,21,15.00
2018,08,23,00,22,15.00
2018,08,23,00,23,14.90
2018,08,23,00,24,14.90
2018,08,23,00,25,14.90
2018,08,23,00,26,14.90
2018,08,23,00,27,14.90
2018,08,23,00,28,14.90
2018,08,23,00,29,14.90
2018,08,23,00,30,14.80
2018,08,23,00,31,14.80
2018,08,23,00,32,14.80
2018,08,23,00,33,14.80
2018,08,23,00,34,14.80
2018,08,23,00,35,14.80
2018,08,23,00,36,14.80
2018,08,23,00,37,14.70
2018,08,23,00,38,14.70
2018,08,23,00,39,14.70
2018,08,23,00,40,14.70
2018,08,23,00,41,14.70
2018,08,23,00,42,14.70
2018,08,23,00,43,14.70
2018,08,23,00,44,14.70
2018,08,23,00,45,14.70
2018,08,23,00,46,14.70
2018,08,23,00,47,14.70
2018,08,23,00,48,14.70
2018,08,23,00,49,14.70
2018,08,23,00,50,14.70
2018,08,23,00,51,14.70
2018,08,23,00,52,14.70
2018,08,23,00,53,14.70
2018,08,23,00,54,14.70
2018,08,23,00,55,14.70
2018,08,23,00,56,14.70
2018,08,23,00,57,14.70
2018,08,23,00,58,14.70
2018,08,23,00,59,14.70
2018,08,23,01,00,14.70
2018,08,23,01,01,14.70
2018,08,23,01,02,14.70
2018,08,23,01,03,14.70
2018,08,23,01,04,14.70
2018,08,23,01,05,14.70
2018,08,23,01,06,14.70
2018,08,23,01,07,14.70
2018,08,23,01,08,14.70
2018,08,23,01,09,14.60
2018,08,23,01,10,14.60
2018,08,23,01,11,14.60
2018,08,23,01,12,14.60
2018,08,23,01,13,14.60
2018,08,23,01,14,14.60
2018,08,23,01,15,14.60
2018,08,23,01,16,14.60
2018,08,23,01,17,14.60
2018,08,23,01,18,14.60
2018,08,23,01,19,14.60
2018,08,23,01,20,14.60
2018,08,23,01,21,14.60
2018,08,23,01,22,14.60
2018,08,23,01,23,14.60
2018,08,23,01,24,14.60
2018,08,23,01,25,14.60
2018,08,23,01,26,14.60
2018,08,23,01,27,14.60
2018,08,23,01,28,14.60
2018,08,23,01,29,14.60
2018,08,23,01,30,14.60
2018,08,23,01,31,14.60
2018,08,23,01,32,14.60
2018,08,23,01,33,14.60
2018,08,23,01,34,14.60
2018,08,23,01,35,14.60
2018,08,23,01,36,14.60
2018,08,23,01,37,14.60
2018,08,23,01,38,14.60
2018,08,23,01,39,14.60
2018,08,23,01,40,14.60
2018,08,23,01,41,14.60
2018,08,23,01,42,14.60
2018,08,23,01,43,14.60
2018,08,23,01,44,14.60
2018,08,23,01,45,14.60
2018,08,23,01,46,14.60
2018,08,23,01,47,14.60
2018,08,23,01,48,14.60
2018,08,23,01,49,14.50
2018,08,23,01,50,14.50
2018,08,23,01,51,14.50
2018,08,23,01,52,14.50
2018,08,23,01,53,14.50
2018,08,23,01,54,14.50
2018,08,23,01,55,14.50
2018,08,23,01,56,14.50
2018,08,23,01,57,14.50
2018,08,23,01,58,14.50
2018,08,23,01,59,14.50
2018,08,23,02,00,14.50
2018,08,23,02,01,14.50
2018,08,23,02,02,14.50
2018,08,23,02,03,14.50
2018,08,23,02,04,14.40
2018,08,23,02,05,14.40
2018,08,23,02,06,14.40
2018,08,23,02,07,14.40
2018,08,23,02,08,14.40
2018,08,23,02,09,14.40
2018,08,23,02,10,14.40
2018,08,23,02,11,14.40
2018,08,23,02,12,14.40
2018,08,23,02,13,14.40
2018,08,23,02,14,14.40
2018,08,23,02,15,14.40
2018,08,23,02,16,14.40
2018,08,23,02,17,14.40
2018,08,23,02,18,14.40
2018,08,23,02,19,14.40
2018,08,23,02,20,14.40
2018,08,23,02,21,14.40
2018,08,23,02,22,14.40
2018,08,23,02,23,14.30
2018,08,23,02,24,14.30
2018,08,23,02,25,14.30
2018,08,23,02,26,14.30
2018,08,23,02,27,14.30
2018,08,23,02,28,14.30
2018,08,23,02,29,14.30
2018,08,23,02,30,14.30
2018,08,23,02,31,14.30
2018,08,23,02,32,14.30
2018,08,23,02,33,14.30
2018,08,23,02,34,14.30
2018,08,23,02,35,14.20
2018,08,23,02,36,14.20
2018,08,23,02,37,14.20
2018,08,23,02,38,14.20
2018,08,23,02,39,14.20
2018,08,23,02,40,14.20
2018,08,23,02,41,14.20
2018,08,23,02,42,14.20
2018,08,23,02,43,14.20
2018,08,23,02,44,14.20
2018,08,23,02,45,14.20
2018,08,23,02,46,14.10
2018,08,23,02,47,14.10
2018,08,23,02,48,14.10
2018,08,23,02,49,14.10
2018,08,23,02,50,14.10
2018,08,23,02,51,14.10
2018,08,23,02,52,14.10
2018,08,23,02,53,14.10
2018,08,23,02,54,14.10
2018,08,23,02,55,14.10
2018,08,23,02,56,14.10
2018,08,23,02,57,14.10
2018,08,23,02,58,14.10
2018,08,23,02,59,14.10
2018,08,23,03,00,14.10
2018,08,23,03,01,14.10
2018,08,23,03,02,14.10
2018,08,23,03,03,14.10
2018,08,23,03,04,14.10
2018,08,23,03,05,14.10
2018,08,23,03,06,14.00
2018,08,23,03,07,14.10
2018,08,23,03,08,14.00
2018,08,23,03,09,14.00
2018,08,23,03,10,14.00
2018,08,23,03,11,14.00
2018,08,23,03,12,14.00
2018,08,23,03,13,14.00
2018,08,23,03,14,14.00
2018,08,23,03,15,14.00
2018,08,23,03,16,14.00
2018,08,23,03,17,14.00
2018,08,23,03,18,14.00
2018,08,23,03,19,14.00
2018,08,23,03,20,14.00
2018,08,23,03,21,14.00
2018,08,23,03,22,14.00
2018,08,23,03,23,14.00
2018,08,23,03,24,14.00
2018,08,23,03,25,14.00
2018,08,23,03,26,13.90
2018,08,23,03,27,13.90
2018,08,23,03,28,13.90
2018,08,23,03,29,13.90
2018,08,23,03,30,13.90
2018,08,23,03,31,13.90
2018,08,23,03,32,13.90
2018,08,23,03,33,13.90
2018,08,23,03,34,13.90
2018,08,23,03,35,13.90
2018,08,23,03,36,13.90
2018,08,23,03,37,13.90
2018,08,23,03,38,13.90
2018,08,23,03,39,13.90
2018,08,23,03,40,13.90
2018,08,23,03,41,13.90
2018,08,23,03,42,13.90
2018,08,23,03,43,13.90
2018,08,23,03,44,13.90
2018,08,23,03,45,13.90
2018,08,23,03,46,13.90
2018,08,23,03,47,13.90
2018,08,23,03,48,13.90
2018,08,23,03,49,13.90
2018,08,23,03,50,13.90
2018,08,23,03,51,13.90
2018,08,23,03,52,13.90
2018,08,23,03,53,13.90
2018,08,23,03,54,13.90
2018,08,23,03,55,13.80
2018,08,23,03,56,13.80
2018,08,23,03,57,13.80
2018,08,23,03,58,13.90
2018,08,23,03,59,13.90
2018,08,23,04,00,13.90
2018,08,23,04,01,13.90
2018,08,23,04,02,13.90
2018,08,23,04,03,13.90
2018,08,23,04,04,13.90
2018,08,23,04,05,13.90
2018,08,23,04,06,13.90
2018,08,23,04,07,13.90
2018,08,23,04,08,13.90
2018,08,23,04,09,13.90
2018,08,23,04,10,13.90
2018,08,23,04,11,13.90
2018,08,23,04,12,13.90
2018,08,23,04,13,13.90
2018,08,23,04,14,13.80
2018,08,23,04,15,13.90
2018,08,23,04,16,13.90
2018,08,23,04,17,13.90
2018,08,23,04,18,13.90
2018,08,23,04,19,13.90
2018,08,23,04,20,13.90
2018,08,23,04,21,13.90
2018,08,23,04,22,13.90
2018,08,23,04,23,13.90
2018,08,23,04,24,13.80
2018,08,23,04,25,13.80
2018,08,23,04,26,13.80
2018,08,23,04,27,13.80
2018,08,23,04,28,13.80
2018,08,23,04,29,13.80
2018,08,23,04,30,13.80
2018,08,23,04,31,13.80
2018,08,23,04,32,13.80
2018,08,23,04,33,13.80
2018,08,23,04,34,13.80
2018,08,23,04,35,13.90
2018,08,23,04,36,13.90
2018,08,23,04,37,13.90
2018,08,23,04,38,13.90
2018,08,23,04,39,13.90
2018,08,23,04,40,13.90
2018,08,23,04,41,13.90
2018,08,23,04,42,13.90
2018,08,23,04,43,13.90
2018,08,23,04,44,13.90
2018,08,23,04,45,13.90
2018,08,23,04,46,13.90
2018,08,23,04,47,13.90
2018,08,23,04,48,13.90
2018,08,23,04,49,13.90
2018,08,23,04,50,13.90
2018,08,23,04,51,13.80
2018,08,23,04,52,13.80
2018,08,23,04,53,13.80
2018,08,23,04,54,13.80
2018,08,23,04,55,13.70
2018,08,23,04,56,13.70
2018,08,23,04,57,13.70
2018,08,23,04,58,13.60
2018,08,23,04,59,13.60
2018,08,23,05,00,13.60
2018,08,23,05,01,13.60
2018,08,23,05,02,13.60
2018,08,23,05,03,13.50
2018,08,23,05,04,13.50
2018,08,23,05,05,13.50
2018,08,23,05,06,13.50
2018,08,23,05,07,13.50
2018,08,23,05,08,13.40
2018,08,23,05,09,13.40
2018,08,23,05,10,13.40
2018,08,23,05,11,13.40
2018,08,23,05,12,13.40
2018,08,23,05,13,13.40
2018,08,23,05,14,13.40
2018,08,23,05,15,13.40
2018,08,23,05,16,13.40
2018,08,23,05,17,13.40
2018,08,23,05,18,13.30
2018,08,23,05,19,13.30
2018,08,23,05,20,13.30
2018,08,23,05,21,13.30
2018,08,23,05,22,13.30
2018,08,23,05,23,13.20
2018,08,23,05,24,13.20
2018,08,23,05,25,13.20
2018,08,23,05,26,13.10
2018,08,23,05,27,13.10
2018,08,23,05,28,13.10
2018,08,23,05,29,13.00
2018,08,23,05,30,13.00
2018,08,23,05,31,12.90
2018,08,23,05,32,12.90
2018,08,23,05,33,12.90
2018,08,23,05,34,12.90
2018,08,23,05,35,12.90
2018,08,23,05,36,12.80
2018,08,23,05,37,12.80
2018,08,23,05,38,12.80
2018,08,23,05,39,12.80
2018,08,23,05,40,12.80
2018,08,23,05,41,12.80
2018,08,23,05,42,12.80
2018,08,23,05,43,12.80
2018,08,23,05,44,12.80
2018,08,23,05,45,12.80
2018,08,23,05,46,12.80
2018,08,23,05,47,12.80
2018,08,23,05,48,12.80
2018,08,23,05,49,12.80
2018,08,23,05,50,12.70
2018,08,23,05,51,12.70
2018,08,23,05,52,12.70
2018,08,23,05,53,12.70
2018,08,23,05,54,12.70
2018,08,23,05,55,12.70
2018,08,23,05,56,12.70
2018,08,23,05,57,12.60
2018,08,23,05,58,12.60
2018,08,23,05,59,12.60
2018,08,23,06,00,12.60
2018,08,23,06,01,12.60
2018,08,23,06,02,12.50
2018,08,23,06,03,12.50
2018,08,23,06,04,12.50
2018,08,23,06,05,12.50
2018,08,23,06,06,12.80
2018,08,23,06,07,13.20
2018,08,23,06,08,13.60
2018,08,23,06,09,14.00
2018,08,23,06,10,14.50
2018,08,23,06,11,14.90
2018,08,23,06,12,15.30
2018,08,23,06,13,15.60
2018,08,23,06,14,15.90
2018,08,23,06,15,16.10
2018,08,23,06,16,16.40
2018,08,23,06,17,16.50
2018,08,23,06,18,16.60
2018,08,23,06,19,16.60
2018,08,23,06,20,16.60
2018,08,23,06,21,16.60
2018,08,23,06,22,16.60
2018,08,23,06,23,16.60
2018,08,23,06,24,16.60
2018,08,23,06,25,16.70
2018,08,23,06,26,16.70
2018,08,23,06,27,16.80
2018,08,23,06,28,16.80
2018,08,23,06,29,16.80
2018,08,23,06,30,16.90
2018,08,23,06,31,16.80
2018,08,23,06,32,16.80
2018,08,23,06,33,16.80
2018,08,23,06,34,16.80
2018,08,23,06,35,16.80
2018,08,23,06,36,16.80
2018,08,23,06,37,16.80
2018,08,23,06,38,16.80
2018,08,23,06,39,16.80
2018,08,23,06,40,16.80
2018,08,23,06,41,16.80
2018,08,23,06,42,16.80
2018,08,23,06,43,16.80
2018,08,23,06,44,16.80
2018,08,23,06,45,16.70
2018,08,23,06,46,16.70
2018,08,23,06,47,16.70
2018,08,23,06,48,16.70
2018,08,23,06,49,16.70
2018,08,23,06,50,16.60
2018,08,23,06,51,16.60
2018,08,23,06,52,16.60
2018,08,23,06,53,16.60
2018,08,23,06,54,16.50
2018,08,23,06,55,16.40
2018,08,23,06,56,16.30
2018,08,23,06,57,16.30
2018,08,23,06,58,16.30
2018,08,23,06,59,16.40
2018,08,23,07,00,16.40
2018,08,23,07,01,16.50
2018,08,23,07,02,16.40
2018,08,23,07,03,16.40
2018,08,23,07,04,16.40
2018,08,23,07,05,16.40
2018,08,23,07,06,16.40
2018,08,23,07,07,16.30
2018,08,23,07,08,16.30
2018,08,23,07,09,16.20
2018,08,23,07,10,16.10
2018,08,23,07,11,16.10
2018,08,23,07,12,16.00
2018,08,23,07,13,15.90
2018,08,23,07,14,16.00
2018,08,23,07,15,16.10
2018,08,23,07,16,16.10
2018,08,23,07,17,16.10
2018,08,23,07,18,16.10
2018,08,23,07,19,16.00
2018,08,23,07,20,16.00
2018,08,23,07,21,16.00
2018,08,23,07,22,16.10
2018,08,23,07,23,16.10
2018,08,23,07,24,16.10
2018,08,23,07,25,16.10
2018,08,23,07,26,16.10
2018,08,23,07,27,16.20
2018,08,23,07,28,16.20
2018,08,23,07,29,16.30
2018,08,23,07,30,16.20
2018,08,23,07,31,16.30
2018,08,23,07,32,16.40
2018,08,23,07,33,16.60
2018,08,23,07,34,16.60
2018,08,23,07,35,16.50
2018,08,23,07,36,16.40
2018,08,23,07,37,16.40
2018,08,23,07,38,16.30
2018,08,23,07,39,16.30
2018,08,23,07,40,16.30
2018,08,23,07,41,16.20
2018,08,23,07,42,16.10
2018,08,23,07,43,16.10
2018,08,23,07,44,16.00
2018,08,23,07,45,16.00
2018,08,23,07,46,16.10
2018,08,23,07,47,16.10
2018,08,23,07,48,16.10
2018,08,23,07,49,16.20
2018,08,23,07,50,16.30
2018,08,23,07,51,16.50
2018,08,23,07,52,16.60
2018,08,23,07,53,16.70
2018,08,23,07,54,16.80
2018,08,23,07,55,17.00
2018,08,23,07,56,17.10
2018,08,23,07,57,17.20
2018,08,23,07,58,17.40
2018,08,23,07,59,17.50
2018,08,23,08,00,17.50
2018,08,23,08,01,17.40
2018,08,23,08,02,17.30
2018,08,23,08,03,17.20
2018,08,23,08,04,17.10
2018,08,23,08,05,17.00
2018,08,23,08,06,17.00
2018,08,23,08,07,16.90
2018,08,23,08,08,16.80
2018,08,23,08,09,16.80
2018,08,23,08,10,16.80
2018,08,23,08,11,16.80
2018,08,23,08,12,16.80
2018,08,23,08,13,16.80
2018,08,23,08,14,16.70
2018,08,23,08,15,16.70
2018,08,23,08,16,16.60
2018,08,23,08,17,16.50
2018,08,23,08,18,16.40
2018,08,23,08,19,16.40
2018,08,23,08,20,16.50
2018,08,23,08,21,16.60
2018,08,23,08,22,16.70
2018,08,23,08,23,16.80
2018,08,23,08,24,16.90
2018,08,23,08,25,16.90
2018,08,23,08,26,16.90
2018,08,23,08,27,16.90
2018,08,23,08,28,16.90
2018,08,23,08,29,16.80
2018,08,23,08,30,16.80
2018,08,23,08,31,16.80
2018,08,23,08,32,16.80
2018,08,23,08,33,16.80
2018,08,23,08,34,16.80
2018,08,23,08,35,16.90
2018,08,23,08,36,16.90
2018,08,23,08,37,17.00
2018,08,23,08,38,17.10
2018,08,23,08,39,17.20
2018,08,23,08,40,17.30
2018,08,23,08,41,17.40
2018,08,23,08,42,17.40
2018,08,23,08,43,17.40
2018,08,23,08,44,17.40
2018,08,23,08,45,17.40
2018,08,23,08,46,17.50
2018,08,23,08,47,17.50
2018,08,23,08,48,17.50
2018,08,23,08,49,17.50
2018,08,23,08,50,17.50
2018,08,23,08,51,17.50
2018,08,23,08,52,17.50
2018,08,23,08,53,17.60
2018,08,23,08,54,17.60
2018,08,23,08,55,17.70
2018,08,23,08,56,17.70
2018,08,23,08,57,17.70
2018,08,23,08,58,17.90
2018,08,23,08,59,17.90
2018,08,23,09,00,18.00
2018,08,23,09,01,17.90
2018,08,23,09,02,17.90
2018,08,23,09,03,17.80
2018,08,23,09,04,17.80
2018,08,23,09,05,17.90
2018,08,23,09,06,17.90
2018,08,23,09,07,17.90
2018,08,23,09,08,18.00
2018,08,23,09,09,18.00
2018,08,23,09,10,18.10
2018,08,23,09,11,18.10
2018,08,23,09,12,18.10
2018,08,23,09,13,18.10
2018,08,23,09,14,18.20
2018,08,23,09,15,18.20
2018,08,23,09,16,18.30
2018,08,23,09,17,18.30
2018,08,23,09,18,18.30
2018,08,23,09,19,18.30
2018,08,23,09,20,18.30
2018,08,23,09,21,18.40
2018,08,23,09,22,18.50
2018,08,23,09,23,18.60
2018,08,23,09,24,18.60
2018,08,23,09,25,18.60
2018,08,23,09,26,18.60
2018,08,23,09,27,18.70
2018,08,23,09,28,18.60
2018,08,23,09,29,18.70
2018,08,23,09,30,18.70
2018,08,23,09,31,18.80
2018,08,23,09,32,18.80
2018,08,23,09,33,18.70
2018,08,23,09,34,18.60
2018,08,23,09,35,18.50
2018,08,23,09,36,18.60
2018,08,23,09,37,18.60
2018,08,23,09,38,18.60
2018,08,23,09,39,18.60
2018,08,23,09,40,18.60
2018,08,23,09,41,18.60
2018,08,23,09,42,18.60
2018,08,23,09,43,18.50
2018,08,23,09,44,18.50
2018,08,23,09,45,18.40
2018,08,23,09,46,18.30
2018,08,23,09,47,18.00
2018,08,23,09,48,17.80
2018,08,23,09,49,17.60
2018,08,23,09,50,17.50
2018,08,23,09,51,17.30
2018,08,23,09,52,17.20
2018,08,23,09,53,17.10
2018,08,23,09,54,17.10
2018,08,23,09,55,17.20
2018,08,23,09,56,17.30
2018,08,23,09,57,17.30
2018,08,23,09,58,17.30
2018,08,23,09,59,17.10
2018,08,23,10,00,16.90
2018,08,23,10,01,16.80
2018,08,23,10,02,16.70
2018,08,23,10,03,16.70
2018,08,23,10,04,16.70
2018,08,23,10,05,16.70
2018,08,23,10,06,16.80
2018,08,23,10,07,16.80
2018,08,23,10,08,16.80
2018,08,23,10,09,16.80
2018,08,23,10,10,16.80
2018,08,23,10,11,16.90
2018,08,23,10,12,16.90
2018,08,23,10,13,16.90
2018,08,23,10,14,16.90
2018,08,23,10,15,16.90
2018,08,23,10,16,16.90
2018,08,23,10,17,16.80
2018,08,23,10,18,16.80
2018,08,23,10,19,16.90
2018,08,23,10,20,17.00
2018,08,23,10,21,17.00
2018,08,23,10,22,16.90
2018,08,23,10,23,16.90
2018,08,23,10,24,16.80
2018,08,23,10,25,16.60
2018,08,23,10,26,16.50
2018,08,23,10,27,16.30
2018,08,23,10,28,16.40
2018,08,23,10,29,16.50
2018,08,23,10,30,16.60
2018,08,23,10,31,16.70
2018,08,23,10,32,16.70
2018,08,23,10,33,16.60
2018,08,23,10,34,16.60
2018,08,23,10,35,16.60
2018,08,23,10,36,16.60
2018,08,23,10,37,16.60
2018,08,23,10,38,16.60
2018,08,23,10,39,16.60
2018,08,23,10,40,16.80
2018,08,23,10,41,17.00
2018,08,23,10,42,17.20
2018,08,23,10,43,17.20
2018,08,23,10,44,17.20
2018,08,23,10,45,17.10
2018,08,23,10,46,17.00
2018,08,23,10,47,16.90
2018,08,23,10,48,17.00
2018,08,23,10,49,17.00
2018,08,23,10,50,16.90
2018,08,23,10,51,16.70
2018,08,23,10,52,16.60
2018,08,23,10,53,16.50
2018,08,23,10,54,16.40
2018,08,23,10,55,16.30
2018,08,23,10,56,16.30
2018,08,23,10,57,16.20
2018,08,23,10,58,16.20
2018,08,23,10,59,16.10
2018,08,23,11,00,16.10
2018,08,23,11,01,16.20
2018,08,23,11,02,16.30
2018,08,23,11,03,16.50
2018,08,23,11,04,16.60
2018,08,23,11,05,16.70
2018,08,23,11,06,16.70
2018,08,23,11,07,16.80
2018,08,23,11,08,16.90
2018,08,23,11,09,17.00
2018,08,23,11,10,17.10
2018,08,23,11,11,17.20
2018,08,23,11,12,17.30
2018,08,23,11,13,17.40
2018,08,23,11,14,17.50
2018,08,23,11,15,17.40
2018,08,23,11,16,17.30
2018,08,23,11,17,17.30
2018,08,23,11,18,17.30
2018,08,23,11,19,17.30
2018,08,23,11,20,17.20
2018,08,23,11,21,17.20
2018,08,23,11,22,17.20
2018,08,23,11,23,17.10
2018,08,23,11,24,17.10
2018,08,23,11,25,17.10
2018,08,23,11,26,17.10
2018,08,23,11,27,17.10
2018,08,23,11,28,17.10
2018,08,23,11,29,17.10
2018,08,23,11,30,17.00
2018,08,23,11,31,17.00
2018,08,23,11,32,16.90
2018,08,23,11,33,16.90
2018,08,23,11,34,16.90
2018,08,23,11,35,16.80
2018,08,23,11,36,16.70
2018,08,23,11,37,16.60
2018,08,23,11,38,16.70
2018,08,23,11,39,16.70
2018,08,23,11,40,16.70
2018,08,23,11,41,16.80
2018,08,23,11,42,16.90
2018,08,23,11,43,17.00
2018,08,23,11,44,17.10
2018,08,23,11,45,17.30
2018,08,23,11,46,17.40
2018,08,23,11,47,17.50
2018,08,23,11,48,17.40
2018,08,23,11,49,17.20
2018,08,23,11,50,17.10
2018,08,23,11,51,17.00
2018,08,23,11,52,16.90
2018,08,23,11,53,16.90
2018,08,23,11,54,16.80
2018,08,23,11,55,16.80
2018,08,23,11,56,16.80
2018,08,23,11,57,16.90
2018,08,23,11,58,17.00
2018,08,23,11,59,17.10
2018,08,23,12,00,17.20
2018,08,23,12,01,17.30
2018,08,23,12,02,17.30
2018,08,23,12,03,17.40
2018,08,23,12,04,17.30
2018,08,23,12,05,17.20
2018,08,23,12,06,17.10
2018,08,23,12,07,17.00
2018,08,23,12,08,16.90
2018,08,23,12,09,16.70
2018,08,23,12,10,16.70
2018,08,23,12,11,16.70
2018,08,23,12,12,16.70
2018,08,23,12,13,16.80
2018,08,23,12,14,16.80
2018,08,23,12,15,16.90
2018,08,23,12,16,17.00
2018,08,23,12,17,17.10
2018,08,23,12,18,17.30
2018,08,23,12,19,17.30
2018,08,23,12,20,17.30
2018,08,23,12,21,17.30
2018,08,23,12,22,17.30
2018,08,23,12,23,17.20
2018,08,23,12,24,17.10
2018,08,23,12,25,17.00
2018,08,23,12,26,16.90
2018,08,23,12,27,16.80
2018,08,23,12,28,16.80
2018,08,23,12,29,16.80
2018,08,23,12,30,17.00
2018,08,23,12,31,17.10
2018,08,23,12,32,17.20
2018,08,23,12,33,17.30
2018,08,23,12,34,17.20
2018,08,23,12,35,17.20
2018,08,23,12,36,17.20
2018,08,23,12,37,17.10
2018,08,23,12,38,17.00
2018,08,23,12,39,17.00
2018,08,23,12,40,17.00
2018,08,23,12,41,16.90
2018,08,23,12,42,16.80
2018,08,23,12,43,16.80
2018,08,23,12,44,16.70
2018,08,23,12,45,16.70
2018,08,23,12,46,16.80
2018,08,23,12,47,16.80
2018,08,23,12,48,16.80
2018,08,23,12,49,16.70
2018,08,23,12,50,16.70
2018,08,23,12,51,16.70
2018,08,23,12,52,16.70
2018,08,23,12,53,16.60
2018,08,23,12,54,16.60
2018,08,23,12,55,16.80
2018,08,23,12,56,16.90
2018,08,23,12,57,17.00
2018,08,23,12,58,17.10
2018,08,23,12,59,17.10
2018,08,23,13,00,17.00
2018,08,23,13,01,16.90
2018,08,23,13,02,16.80
2018,08,23,13,03,16.70
2018,08,23,13,04,16.70
2018,08,23,13,05,16.70
2018,08,23,13,06,16.70
2018,08,23,13,07,16.80
2018,08,23,13,08,16.90
2018,08,23,13,09,17.10
2018,08,23,13,10,17.20
2018,08,23,13,11,17.30
2018,08,23,13,12,17.40
2018,08,23,13,13,17.50
2018,08,23,13,14,17.50
2018,08,23,13,15,17.60
2018,08,23,13,16,17.50
2018,08,23,13,17,17.50
2018,08,23,13,18,17.40
2018,08,23,13,19,17.40
2018,08,23,13,20,17.40
2018,08,23,13,21,17.40
2018,08,23,13,22,17.50
2018,08,23,13,23,17.60
2018,08,23,13,24,17.70
2018,08,23,13,25,17.90
2018,08,23,13,26,18.00
2018,08,23,13,27,18.10
2018,08,23,13,28,18.00
2018,08,23,13,29,17.90
2018,08,23,13,30,17.90
2018,08,23,13,31,17.70
2018,08,23,13,32,17.50
2018,08,23,13,33,17.40
2018,08,23,13,34,17.20
2018,08,23,13,35,17.20
2018,08,23,13,36,17.20
2018,08,23,13,37,17.20
2018,08,23,13,38,17.20
2018,08,23,13,39,17.30
2018,08,23,13,40,17.40
2018,08,23,13,41,17.60
2018,08,23,13,42,17.70
2018,08,23,13,43,17.70
2018,08,23,13,44,17.70
2018,08,23,13,45,17.60
2018,08,23,13,46,17.50
2018,08,23,13,47,17.40
2018,08,23,13,48,17.30
2018,08,23,13,49,17.30
2018,08,23,13,50,17.30
2018,08,23,13,51,17.20
2018,08,23,13,52,17.20
2018,08,23,13,53,17.20
2018,08,23,13,54,17.20
2018,08,23,13,55,17.20
2018,08,23,13,56,17.20
2018,08,23,13,57,17.30
2018,08,23,13,58,17.30
2018,08,23,13,59,17.40
2018,08,23,14,00,17.50
2018,08,23,14,01,17.70
2018,08,23,14,02,17.90
2018,08,23,14,03,18.10
2018,08,23,14,04,18.20
2018,08,23,14,05,18.20
2018,08,23,14,06,18.10
2018,08,23,14,07,18.10
2018,08,23,14,08,18.20
2018,08,23,14,09,18.30
2018,08,23,14,10,18.50
2018,08,23,14,11,18.60
2018,08,23,14,12,18.70
2018,08,23,14,13,18.80
2018,08,23,14,14,18.90
2018,08,23,14,15,18.90
2018,08,23,14,16,18.80
2018,08,23,14,17,18.60
2018,08,23,14,18,18.40
2018,08,23,14,19,18.20
2018,08,23,14,20,18.10
2018,08,23,14,21,17.90
2018,08,23,14,22,17.80
2018,08,23,14,23,17.80
2018,08,23,14,24,18.00
2018,08,23,14,25,18.10
2018,08,23,14,26,18.30
2018,08,23,14,27,18.40
2018,08,23,14,28,18.40
2018,08,23,14,29,18.50
2018,08,23,14,30,18.70
2018,08,23,14,31,19.00
2018,08,23,14,32,19.10
2018,08,23,14,33,19.10
2018,08,23,14,34,19.20
2018,08,23,14,35,19.30
2018,08,23,14,36,19.50
2018,08,23,14,37,19.60
2018,08,23,14,38,19.70
2018,08,23,14,39,19.80
2018,08,23,14,40,19.80
2018,08,23,14,41,19.80
2018,08,23,14,42,19.60
2018,08,23,14,43,19.50
2018,08,23,14,44,19.50
2018,08,23,14,45,19.40
2018,08,23,14,46,19.40
2018,08,23,14,47,19.50
2018,08,23,14,48,19.70
2018,08,23,14,49,19.80
2018,08,23,14,50,19.80
2018,08,23,14,51,19.80
2018,08,23,14,52,19.70
2018,08,23,14,53,19.60
2018,08,23,14,54,19.70
2018,08,23,14,55,19.60
2018,08,23,14,56,19.70
2018,08,23,14,57,19.70
2018,08,23,14,58,19.70
2018,08,23,14,59,19.80
2018,08,23,15,00,19.90
2018,08,23,15,01,20.00
2018,08,23,15,02,19.90
2018,08,23,15,03,19.90
2018,08,23,15,04,19.80
2018,08,23,15,05,19.60
2018,08,23,15,06,19.60
2018,08,23,15,07,19.80
2018,08,23,15,08,19.80
2018,08,23,15,09,19.90
2018,08,23,15,10,20.00
2018,08,23,15,11,20.00
2018,08,23,15,12,20.10
2018,08,23,15,13,20.20
2018,08,23,15,14,20.20
2018,08,23,15,15,20.20
2018,08,23,15,16,20.20
2018,08,23,15,17,20.10
2018,08,23,15,18,20.00
2018,08,23,15,19,20.00
2018,08,23,15,20,20.00
2018,08,23,15,21,20.10
2018,08,23,15,22,20.20
2018,08,23,15,23,20.30
2018,08,23,15,24,20.50
2018,08,23,15,25,20.50
2018,08,23,15,26,20.60
2018,08,23,15,27,20.60
2018,08,23,15,28,20.50
2018,08,23,15,29,20.40
2018,08,23,15,30,20.30
2018,08,23,15,31,20.10
2018,08,23,15,32,20.00
2018,08,23,15,33,19.90
2018,08,23,15,34,19.70
2018,08,23,15,35,19.70
2018,08,23,15,36,19.70
2018,08,23,15,37,19.80
2018,08,23,15,38,20.00
2018,08,23,15,39,20.20
2018,08,23,15,40,20.40
2018,08,23,15,41,20.50
2018,08,23,15,42,20.60
2018,08,23,15,43,20.70
2018,08,23,15,44,20.70
2018,08,23,15,45,20.80
2018,08,23,15,46,20.90
2018,08,23,15,47,20.90
2018,08,23,15,48,20.90
2018,08,23,15,49,20.80
2018,08,23,15,50,20.70
2018,08,23,15,51,20.50
2018,08,23,15,52,20.30
2018,08,23,15,53,20.10
2018,08,23,15,54,20.00
2018,08,23,15,55,19.90
2018,08,23,15,56,19.80
2018,08,23,15,57,19.80
2018,08,23,15,58,19.90
2018,08,23,15,59,20.00
2018,08,23,16,00,20.10
2018,08,23,16,01,20.20
2018,08,23,16,02,20.20
2018,08,23,16,03,20.10
2018,08,23,16,04,20.10
2018,08,23,16,05,20.10
2018,08,23,16,06,20.20
2018,08,23,16,07,20.30
2018,08,23,16,08,20.40
2018,08,23,16,09,20.40
2018,08,23,16,10,20.30
2018,08,23,16,11,20.30
2018,08,23,16,12,20.10
2018,08,23,16,13,20.00
2018,08,23,16,14,19.80
2018,08,23,16,15,19.80
2018,08,23,16,16,19.80
2018,08,23,16,17,20.00
2018,08,23,16,18,20.10
2018,08,23,16,19,20.10
2018,08,23,16,20,20.00
2018,08,23,16,21,20.00
2018,08,23,16,22,20.20
2018,08,23,16,23,20.30
2018,08,23,16,24,20.30
2018,08,23,16,25,20.20
2018,08,23,16,26,20.20
2018,08,23,16,27,20.20
2018,08,23,16,28,20.10
2018,08,23,16,29,20.10
2018,08,23,16,30,20.00
2018,08,23,16,31,20.10
2018,08,23,16,32,20.20
2018,08,23,16,33,20.10
2018,08,23,16,34,20.00
2018,08,23,16,35,19.90
2018,08,23,16,36,19.90
2018,08,23,16,37,19.90
2018,08,23,16,38,19.90
2018,08,23,16,39,19.80
2018,08,23,16,40,19.90
2018,08,23,16,41,20.00
2018,08,23,16,42,20.20
2018,08,23,16,43,20.40
2018,08,23,16,44,20.50
2018,08,23,16,45,20.50
2018,08,23,16,46,20.60
2018,08,23,16,47,20.60
2018,08,23,16,48,20.60
2018,08,23,16,49,20.60
2018,08,23,16,50,20.50
2018,08,23,16,51,20.40
2018,08,23,16,52,20.40
2018,08,23,16,53,20.30
2018,08,23,16,54,20.30
2018,08,23,16,55,20.20
2018,08,23,16,56,20.10
2018,08,23,16,57,19.90
2018,08,23,16,58,19.80
2018,08,23,16,59,19.70
2018,08,23,17,00,19.60
2018,08,23,17,01,19.60
2018,08,23,17,02,19.50
2018,08,23,17,03,19.40
2018,08,23,17,04,19.20
2018,08,23,17,05,19.20
2018,08,23,17,06,19.20
2018,08,23,17,07,19.40
2018,08,23,17,08,19.50
2018,08,23,17,09,19.60
2018,08,23,17,10,19.60
2018,08,23,17,11,19.80
2018,08,23,17,12,19.90
2018,08,23,17,13,19.90
2018,08,23,17,14,19.90
2018,08,23,17,15,19.90
2018,08,23,17,16,19.90
2018,08,23,17,17,19.90
2018,08,23,17,18,19.80
2018,08,23,17,19,19.70